This demonstration page uses our WeatherBlox Daily Observations layout. Learn more.

Left ArrowRight Arrow

Hourly Observations for January 21, 2017

Temp ( °F °C ) Dew Point ( °F °C ) Humidity (%) Winds ( mph kmh ) Pressure ( in mb ) Visibility ( mi km ) Precip ( " mm )
12:52 am 00:52 Clear 52 11.1 39 3.9 61 61 SSE 14 22 29.52 1000 10 16 0.00 0.00
1:52 am 01:52 Clear 51 10.6 39 3.9 64 64 SSE 14 22 29.52 1000 10 16 0.00 0.00
2:52 am 02:52 Clear 49 9.4 38 3.3 66 66 S 7 11 29.51 999 10 16 0.00 0.00
3:52 am 03:52 Clear 48 8.9 38 3.3 68 68 SSE 13 20 29.50 999 10 16 0.00 0.00
4:52 am 04:52 Clear 48 8.9 38 3.3 68 68 S 10 17 29.51 999 10 16 0.00 0.00
5:52 am 05:52 Clear 46 7.8 37 2.8 71 71 S 10 17 29.53 1000 10 16 0.00 0.00
6:52 am 06:52 Clear 42 5.6 35 1.7 76 76 SSW 8 13 29.54 1000 10 16 0.00 0.00
7:52 am 07:52 Sunny 41 5 34 1.1 76 76 S 5 7 29.55 1001 10 16 0.00 0.00
8:52 am 08:52 Sunny 51 10.6 39 3.9 64 64 SSW 7 11 29.56 1001 10 16 0.00 0.00
9:52 am 09:52 Sunny 56 13.3 38 3.3 51 51 SW 10 17 29.57 1002 10 16 0.00 0.00
10:52 am 10:52 Mostly Sunny 60 15.6 37 2.8 42 42 SSW 12 19 29.57 1001 10 16 0.00 0.00
11:52 am 11:52 Sunny 60 15.6 38 3.3 44 44 VRB 5 7 29.54 1001 10 16 0.00 0.00
12:52 pm 12:52 Mostly Sunny 62 16.7 37 2.8 40 40 S 7 11 29.50 999 10 16 0.00 0.00
1:52 pm 13:52 Mostly Cloudy 62 16.7 38 3.3 41 41 SSE 7 11 29.47 998 10 16 0.00 0.00
2:52 pm 14:52 Cloudy 63 17.2 39 3.9 41 41 S 6 9 29.47 998 10 16 0.00 0.00
3:52 pm 15:52 Cloudy 65 18.3 40 4.4 40 40 S 6 9 29.47 998 10 16 0.00 0.00
4:52 pm 16:52 Cloudy 60 15.6 42 5.6 52 52 Calm 29.47 998 10 16 0.00 0.00
5:52 pm 17:52 Cloudy 59 15 41 5 51 51 ESE 3 6 29.48 998 10 16 0.00 0.00
6:52 pm 18:52 Mostly Cloudy 57 13.9 42 5.6 58 58 Calm 29.48 998 10 16 0.00 0.00
7:52 pm 19:52 Cloudy with Light Rain 53 11.7 45 7.2 74 74 S 7 11 29.50 999 10 16 0.00 0.03
8:52 pm 20:52 Cloudy with Light Rain 53 11.7 49 9.4 86 86 ENE 5 7 29.46 998 10 16 0.04 1.02
9:52 pm 21:52 Cloudy 54 12.2 49 9.4 83 83 ESE 13 20 29.44 997 10 16 0.00 0.03
10:52 pm 22:52 Cloudy with Light Rain 53 11.7 48 8.9 83 83 E 10 17 29.44 997 10 16 0.01 0.25
11:52 pm 23:52 Cloudy 52 11.1 48 8.9 86 86 NE 7 11 29.42 996 10 16 0.00 0.03

Powered by AerisWeather